Aérodrome :
LOGIN :

S'inscrire | Disclaimer

   EN    FR    IT 

 










Légende :    VFR   VFR Marginal   IFR   IFR Intensif   IFR Très Intensif
Visi : 
Plafond : 
>= 8 km
>= 3000ft
5 à 8 km
1000 à 3000 ft
1500m à 5 km
500 à 1000 ft
800 à 1500m
200 à 500 ft
< 800m
< 200 ft
Symboles :   Orages  Brouillard  Fortes neiges  Fortes précipitations  Vent > 20 kt
SIGMETs :   Divers  Orages  Givrage  Turbulence  Onde Orograph.  Cendres Volcan.







- Altitude de l'aérodrome : 34 ft
- Code IATA : BLK
- Voir les cartes d'approche


EGNH - Blackpool

DERNIER METAR :
  • 171350Z 26010KT 9999 FEW025 18/15 Q1012

METARs EXPIRÉS :
  • 171320Z 26012KT 9999 -SHRA FEW012 SCT038 19/15 Q1012
  • 171250Z 25013KT 9999 -SHRA FEW020 20/14 Q1012
  • 171220Z 25014KT 9999 FEW018 22/15 Q1012
  • 171120Z 25015KT 9999 FEW017 20/14 Q1013

TAF TAF EGNH
Valide du 17 à 12h jusqu'au 17 à 20h UTC


171102Z 1712/1720 23013KT 9999 FEW045
TEMPO 1712/1720 6000 RA BKN009
ATIS : +44 1253 343 434 (x8315)
Pas de NOTAMs connus pour ce terrain.



MET'MAP, la Météo Aéronautique d'un coup d'oeil ! - Copyright ORBIFLY Décembre 2007 - Disclaimer

ORBIFLY MET'MAP TEAM :

Programmation & Développement : Alexandra Zaïnal
Conception & Développement : Baudouin d'Aumeries
Co-Programmation & Développement : Marc-Olivier Méhu
Soutien technique & logistique : Manuel Goepfert

Contact : metmap@orbifly.com




SOURCES & CREDITS :

   NOAA